Time,TemperatureF,DewpointF,PressureIn,WindDirection,WindDirectionDegrees,WindSpeedMPH,WindSpeedGustMPH,Humidity,HourlyPrecipIn,Conditions,Clouds,dailyrainin,SoftwareType,DateUTC
2013-11-19 00:11:00,46.0,46.0,29.73,SW,231,0.0,3.0,98,0.00,,,0.00,weatherlink.com 1.10,2013-11-19 08:11:00,
2013-11-19 00:26:00,46.2,46.0,29.73,SW,231,0.0,2.0,99,0.00,,,0.00,weatherlink.com 1.10,2013-11-19 08:26:00,
2013-11-19 00:41:00,46.5,46.0,29.73,SW,231,0.0,1.0,99,0.01,,,0.01,weatherlink.com 1.10,2013-11-19 08:41:00,
2013-11-19 00:56:00,46.9,47.0,29.73,SW,231,0.0,1.0,99,0.01,,,0.01,weatherlink.com 1.10,2013-11-19 08:56:00,
2013-11-19 01:11:00,47.3,47.0,29.73,SW,231,0.0,1.0,99,0.02,,,0.02,weatherlink.com 1.10,2013-11-19 09:11:00,
2013-11-19 01:26:00,47.5,47.0,29.73,SW,231,0.0,1.0,99,0.03,,,0.03,weatherlink.com 1.10,2013-11-19 09:26:00,
2013-11-19 01:41:00,47.5,47.0,29.73,SW,231,0.0,1.0,99,0.02,,,0.03,weatherlink.com 1.10,2013-11-19 09:41:00,
2013-11-19 01:56:00,47.5,47.0,29.72,SW,231,0.0,1.0,99,0.02,,,0.03,weatherlink.com 1.10,2013-11-19 09:56:00,
2013-11-19 02:11:00,47.5,47.0,29.72,SW,231,0.0,1.0,99,0.01,,,0.04,weatherlink.com 1.10,2013-11-19 10:11:00,
2013-11-19 02:26:00,47.6,47.0,29.72,SW,231,0.0,0.0,99,0.01,,,0.04,weatherlink.com 1.10,2013-11-19 10:26:00,
2013-11-19 02:41:00,47.7,48.0,29.73,SW,231,0.0,0.0,99,0.01,,,0.04,weatherlink.com 1.10,2013-11-19 10:41:00,
2013-11-19 02:57:00,47.7,48.0,29.73,NNE,27,0.0,2.0,99,0.01,,,0.04,weatherlink.com 1.10,2013-11-19 10:57:00,
2013-11-19 03:11:00,47.6,47.0,29.72,NNE,27,0.0,0.0,99,0.00,,,0.04,weatherlink.com 1.10,2013-11-19 11:11:00,
2013-11-19 03:26:00,47.7,48.0,29.72,NNE,27,0.0,1.0,99,0.00,,,0.04,weatherlink.com 1.10,2013-11-19 11:26:00,
2013-11-19 03:42:00,47.6,47.0,29.72,NNE,27,0.0,0.0,99,0.00,,,0.04,weatherlink.com 1.10,2013-11-19 11:42:00,
2013-11-19 03:57:00,47.8,48.0,29.72,NNE,27,0.0,1.0,99,0.01,,,0.05,weatherlink.com 1.10,2013-11-19 11:57:00,
2013-11-19 04:12:00,47.8,48.0,29.72,NNE,27,0.0,1.0,99,0.01,,,0.05,weatherlink.com 1.10,2013-11-19 12:12:00,
2013-11-19 04:27:00,47.8,48.0,29.72,NNE,27,0.0,0.0,99,0.01,,,0.05,weatherlink.com 1.10,2013-11-19 12:27:00,
2013-11-19 04:42:00,48.1,48.0,29.72,NNE,27,0.0,0.0,99,0.01,,,0.05,weatherlink.com 1.10,2013-11-19 12:42:00,
2013-11-19 04:58:00,48.2,48.0,29.72,NNE,27,0.0,0.0,99,0.01,,,0.06,weatherlink.com 1.10,2013-11-19 12:58:00,
2013-11-19 05:14:00,48.2,48.0,29.71,NNE,27,0.0,1.0,99,0.01,,,0.06,weatherlink.com 1.10,2013-11-19 13:14:00,
2013-11-19 05:27:00,48.2,48.0,29.71,NNE,27,0.0,1.0,99,0.01,,,0.06,weatherlink.com 1.10,2013-11-19 13:27:00,
2013-11-19 05:42:00,48.2,48.0,29.71,NNE,27,0.0,0.0,99,0.02,,,0.07,weatherlink.com 1.10,2013-11-19 13:42:00,
2013-11-19 05:57:00,48.4,48.0,29.72,NNE,30,0.0,1.0,99,0.01,,,0.07,weatherlink.com 1.10,2013-11-19 13:57:00,
2013-11-19 06:12:00,48.4,48.0,29.72,NNE,30,0.0,1.0,99,0.01,,,0.07,weatherlink.com 1.10,2013-11-19 14:12:00,
2013-11-19 06:27:00,48.2,48.0,29.71,NNE,30,0.0,0.0,99,0.01,,,0.07,weatherlink.com 1.10,2013-11-19 14:27:00,
2013-11-19 06:42:00,48.3,48.0,29.72,NNE,30,0.0,0.0,99,0.00,,,0.07,weatherlink.com 1.10,2013-11-19 14:42:00,
2013-11-19 06:57:00,48.4,48.0,29.72,NNE,30,0.0,0.0,99,0.00,,,0.07,weatherlink.com 1.10,2013-11-19 14:57:00,
2013-11-19 07:12:00,48.5,48.0,29.73,NNE,30,0.0,1.0,99,0.01,,,0.08,weatherlink.com 1.10,2013-11-19 15:12:00,
2013-11-19 07:27:00,48.6,48.0,29.73,NNE,30,0.0,0.0,99,0.03,,,0.10,weatherlink.com 1.10,2013-11-19 15:27:00,
2013-11-19 07:42:00,48.5,48.0,29.73,NNE,30,0.0,0.0,99,0.04,,,0.11,weatherlink.com 1.10,2013-11-19 15:42:00,
2013-11-19 07:57:00,48.6,48.0,29.73,NNE,30,0.0,0.0,99,0.05,,,0.12,weatherlink.com 1.10,2013-11-19 15:57:00,
2013-11-19 08:12:00,48.8,49.0,29.73,NNE,30,0.0,0.0,99,0.05,,,0.13,weatherlink.com 1.10,2013-11-19 16:12:00,
2013-11-19 08:28:00,48.9,49.0,29.73,NNE,30,0.0,0.0,99,0.04,,,0.14,weatherlink.com 1.10,2013-11-19 16:28:00,
2013-11-19 08:41:00,49.0,49.0,29.73,NNE,30,0.0,0.0,99,0.05,,,0.16,weatherlink.com 1.10,2013-11-19 16:41:00,
2013-11-19 08:56:00,49.3,49.0,29.74,ENE,75,0.0,2.0,99,0.06,,,0.18,weatherlink.com 1.10,2013-11-19 16:56:00,
2013-11-19 09:12:00,49.4,49.0,29.74,North,350,0.0,3.0,99,0.06,,,0.19,weatherlink.com 1.10,2013-11-19 17:12:00,
2013-11-19 09:26:00,49.5,49.0,29.74,NW,326,0.0,2.0,99,0.05,,,0.19,weatherlink.com 1.10,2013-11-19 17:26:00,
2013-11-19 09:42:00,49.4,49.0,29.74,NNW,329,0.0,1.0,99,0.04,,,0.20,weatherlink.com 1.10,2013-11-19 17:42:00,
2013-11-19 09:56:00,49.4,49.0,29.75,NNW,329,0.0,1.0,99,0.04,,,0.22,weatherlink.com 1.10,2013-11-19 17:56:00,
2013-11-19 10:12:00,49.5,49.0,29.75,NNW,329,0.0,1.0,99,0.03,,,0.22,weatherlink.com 1.10,2013-11-19 18:12:00,
2013-11-19 10:27:00,49.5,49.0,29.76,NE,43,0.0,2.0,99,0.04,,,0.23,weatherlink.com 1.10,2013-11-19 18:27:00,
2013-11-19 10:42:00,49.4,49.0,29.76,East,101,1.0,3.0,99,0.03,,,0.23,weatherlink.com 1.10,2013-11-19 18:42:00,
2013-11-19 10:57:00,49.1,49.0,29.76,North,355,0.0,4.0,99,0.02,,,0.24,weatherlink.com 1.10,2013-11-19 18:57:00,
2013-11-19 11:12:00,49.0,49.0,29.77,West,261,2.0,3.0,99,0.03,,,0.25,weatherlink.com 1.10,2013-11-19 19:12:00,
2013-11-19 11:27:00,48.4,48.0,29.77,North,352,1.0,3.0,98,0.03,,,0.26,weatherlink.com 1.10,2013-11-19 19:27:00,
2013-11-19 11:42:00,47.9,47.0,29.77,NNE,12,0.0,4.0,98,0.03,,,0.26,weatherlink.com 1.10,2013-11-19 19:42:00,
2013-11-19 11:57:00,47.4,47.0,29.77,ENE,70,3.0,4.0,98,0.02,,,0.26,weatherlink.com 1.10,2013-11-19 19:57:00,
2013-11-19 12:12:00,47.2,46.0,29.77,SSW,207,1.0,5.0,97,0.01,,,0.26,weatherlink.com 1.10,2013-11-19 20:12:00,
2013-11-19 12:27:00,47.0,46.0,29.77,NNW,345,3.0,5.0,97,0.00,,,0.26,weatherlink.com 1.10,2013-11-19 20:27:00,
2013-11-19 12:42:00,46.8,46.0,29.77,WNW,290,1.0,3.0,96,0.00,,,0.26,weatherlink.com 1.10,2013-11-19 20:42:00,
2013-11-19 12:57:00,46.6,45.0,29.77,NNW,340,1.0,4.0,95,0.00,,,0.26,weatherlink.com 1.10,2013-11-19 20:57:00,
2013-11-19 13:12:00,46.5,46.0,29.78,NNE,30,1.0,2.0,96,0.00,,,0.26,weatherlink.com 1.10,2013-11-19 21:12:00,
2013-11-19 13:27:00,46.1,45.0,29.77,NNW,328,3.0,5.0,94,0.00,,,0.26,weatherlink.com 1.10,2013-11-19 21:27:00,
2013-11-19 13:42:00,46.1,45.0,29.77,ENE,63,0.0,3.0,95,0.00,,,0.26,weatherlink.com 1.10,2013-11-19 21:42:00,
2013-11-19 13:57:00,45.8,44.0,29.78,ENE,65,0.0,2.0,94,0.00,,,0.26,weatherlink.com 1.10,2013-11-19 21:57:00,
2013-11-19 14:12:00,45.6,45.0,29.78,South,180,1.0,2.0,96,0.00,,,0.26,weatherlink.com 1.10,2013-11-19 22:12:00,
2013-11-19 14:27:00,45.3,44.0,29.79,East,101,0.0,2.0,96,0.00,,,0.26,weatherlink.com 1.10,2013-11-19 22:27:00,
2013-11-19 14:42:00,45.0,44.0,29.79,ENE,60,0.0,2.0,95,0.00,,,0.26,weatherlink.com 1.10,2013-11-19 22:42:00,
2013-11-19 14:57:00,45.2,44.0,29.79,North,11,0.0,1.0,95,0.00,,,0.26,weatherlink.com 1.10,2013-11-19 22:57:00,
2013-11-19 15:12:00,45.0,44.0,29.79,West,262,0.0,2.0,95,0.00,,,0.26,weatherlink.com 1.10,2013-11-19 23:12:00,
2013-11-19 15:27:00,44.9,43.0,29.80,NNE,15,0.0,4.0,94,0.00,,,0.26,weatherlink.com 1.10,2013-11-19 23:27:00,
2013-11-19 15:42:00,44.8,43.0,29.80,ENE,60,0.0,3.0,92,0.00,,,0.26,weatherlink.com 1.10,2013-11-19 23:42:00,
2013-11-19 15:57:00,44.4,42.0,29.80,NNW,342,2.0,4.0,92,0.00,,,0.26,weatherlink.com 1.10,2013-11-19 23:57:00,
2013-11-19 16:13:00,44.1,42.0,29.81,NNE,18,1.0,5.0,91,0.00,,,0.26,weatherlink.com 1.10,2013-11-20 00:13:00,
2013-11-19 16:28:00,43.9,42.0,29.81,NW,315,0.0,5.0,91,0.00,,,0.26,weatherlink.com 1.10,2013-11-20 00:28:00,
2013-11-19 16:43:00,43.5,41.0,29.81,WNW,302,1.0,4.0,90,0.00,,,0.26,weatherlink.com 1.10,2013-11-20 00:43:00,
2013-11-19 16:58:00,43.2,41.0,29.82,SSW,201,2.0,6.0,90,0.00,,,0.26,weatherlink.com 1.10,2013-11-20 00:58:00,
2013-11-19 17:13:00,42.9,40.0,29.82,NNW,328,0.0,4.0,90,0.00,,,0.26,weatherlink.com 1.10,2013-11-20 01:13:00,
2013-11-19 17:28:00,42.8,40.0,29.83,ENE,58,2.0,6.0,90,0.00,,,0.26,weatherlink.com 1.10,2013-11-20 01:28:00,
2013-11-19 17:43:00,42.6,40.0,29.83,South,188,0.0,5.0,90,0.00,,,0.26,weatherlink.com 1.10,2013-11-20 01:43:00,
2013-11-19 17:58:00,42.5,40.0,29.84,East,90,2.0,5.0,91,0.00,,,0.26,weatherlink.com 1.10,2013-11-20 01:58:00,
2013-11-19 18:13:00,42.3,40.0,29.84,North,11,3.0,4.0,91,0.00,,,0.26,weatherlink.com 1.10,2013-11-20 02:13:00,
2013-11-19 18:30:00,42.1,40.0,29.84,ESE,105,1.0,5.0,91,0.00,,,0.26,weatherlink.com 1.10,2013-11-20 02:30:00,
2013-11-19 18:43:00,42.0,40.0,29.84,NNE,25,1.0,4.0,91,0.00,,,0.26,weatherlink.com 1.10,2013-11-20 02:43:00,
2013-11-19 18:58:00,42.0,39.0,29.84,ESE,119,1.0,5.0,90,0.00,,,0.26,weatherlink.com 1.10,2013-11-20 02:58:00,
2013-11-19 19:13:00,41.7,39.0,29.84,NNE,29,2.0,4.0,89,0.00,,,0.26,weatherlink.com 1.10,2013-11-20 03:13:00,
2013-11-19 19:28:00,41.5,38.0,29.84,NNW,347,1.0,9.0,87,0.00,,,0.26,weatherlink.com 1.10,2013-11-20 03:28:00,
2013-11-19 19:44:00,41.2,38.0,29.85,North,354,1.0,6.0,87,0.00,,,0.26,weatherlink.com 1.10,2013-11-20 03:44:00,
2013-11-19 19:59:00,41.1,37.0,29.86,NW,307,2.0,8.0,86,0.00,,,0.26,weatherlink.com 1.10,2013-11-20 03:59:00,
2013-11-19 20:14:00,40.9,37.0,29.87,ESE,117,4.0,5.0,86,0.00,,,0.26,weatherlink.com 1.10,2013-11-20 04:14:00,
2013-11-19 20:29:00,40.6,37.0,29.87,WNW,300,1.0,5.0,87,0.00,,,0.26,weatherlink.com 1.10,2013-11-20 04:29:00,
2013-11-19 20:44:00,40.3,37.0,29.88,SSW,207,1.0,4.0,86,0.00,,,0.26,weatherlink.com 1.10,2013-11-20 04:44:00,
2013-11-19 20:59:00,40.3,37.0,29.89,ENE,68,1.0,7.0,86,0.00,,,0.26,weatherlink.com 1.10,2013-11-20 04:59:00,
2013-11-19 21:29:00,39.9,36.0,29.90,West,278,0.0,3.0,86,0.00,,,0.26,weatherlink.com 1.10,2013-11-20 05:29:00,
2013-11-19 21:44:00,39.8,36.0,29.90,NNW,329,1.0,4.0,86,0.00,,,0.26,weatherlink.com 1.10,2013-11-20 05:44:00,
2013-11-19 21:59:00,39.6,36.0,29.91,West,264,1.0,5.0,86,0.00,,,0.26,weatherlink.com 1.10,2013-11-20 05:59:00,
2013-11-19 22:14:00,39.3,35.0,29.92,North,1,1.0,8.0,84,0.00,,,0.26,weatherlink.com 1.10,2013-11-20 06:14:00,
2013-11-19 22:29:00,38.9,34.0,29.92,NNE,25,0.0,5.0,82,0.00,,,0.26,weatherlink.com 1.10,2013-11-20 06:29:00,
2013-11-19 22:44:00,38.7,33.0,29.92,West,281,1.0,5.0,81,0.00,,,0.26,weatherlink.com 1.10,2013-11-20 06:44:00,
2013-11-19 22:59:00,38.4,34.0,29.92,South,187,1.0,5.0,83,0.00,,,0.26,weatherlink.com 1.10,2013-11-20 06:59:00,
2013-11-19 23:14:00,38.1,34.0,29.93,NNW,339,1.0,6.0,84,0.00,,,0.26,weatherlink.com 1.10,2013-11-20 07:14:00,
2013-11-19 23:29:00,37.8,34.0,29.94,ESE,121,2.0,6.0,85,0.00,,,0.26,weatherlink.com 1.10,2013-11-20 07:29:00,
2013-11-19 23:44:00,37.4,34.0,29.95,NNW,330,0.0,5.0,86,0.00,,,0.26,weatherlink.com 1.10,2013-11-20 07:44:00,
2013-11-19 23:59:00,37.3,34.0,29.96,NW,315,0.0,5.0,86,0.00,,,0.26,weatherlink.com 1.10,2013-11-20 07:59:00,